QPF
0.00 0.00 0.00 0.00 0.00 0.00 0.00 0.00 0.00 0.00 0.00 0.00 0.00 0.00 0.00 0.00 0.00 0.00 0.00 0.00 0.00 0.00 0.00 0.01 0.01 0.01 0.02 0.02 0.02 0.02 0.02 0.04 0.09 0.19 0.21 0.20 0.24 0.25 0.24 0.21 0.23 0.23 0.23 0.22
0.00 0.00 0.00 0.00 0.00 0.00 0.00 0.00 0.00 0.00 0.00 0.00 0.00 0.00 0.00 0.00 0.00 0.00 0.00 0.00 0.00 0.00 0.00 0.00 0.01 0.01 0.02 0.02 0.03 0.03 0.04 0.08 0.16 0.25 0.29 0.32 0.34 0.33 0.37 0.36 0.35 0.34 0.32 0.32
0.00 0.00 0.00 0.00 0.00 0.00 0.00 0.00 0.00 0.00 0.00 0.00 0.00 0.00 0.00 0.00 0.00 0.00 0.00 0.00 0.00 0.01 0.01 0.01 0.01 0.02 0.03 0.04 0.04 0.05 0.06 0.13 0.25 0.33 0.37 0.40 0.40 0.40 0.39 0.38 0.40 0.42 0.43 0.43
0.00 0.00 0.00 0.00 0.00 0.00 0.00 0.00 0.00 0.00 0.00 0.00 0.00 0.00 0.01 0.01 0.01 0.01 0.01 0.01 0.01 0.01 0.02 0.03 0.03 0.04 0.05 0.06 0.06 0.06 0.08 0.12 0.20 0.32 0.44 0.49 0.49 0.51 0.51 0.50 0.50 0.50 0.46 0.40
0.00 0.00 0.00 0.00 0.00 0.00 0.00 0.00 0.00 0.00 0.00 0.00 0.00 0.00 0.02 0.03 0.02 0.02 0.02 0.02 0.02 0.03 0.03 0.04 0.04 0.05 0.05 0.06 0.08 0.08 0.10 0.14 0.20 0.28 0.42 0.52 0.59 0.62 0.59 0.53 0.52 0.51 0.41 0.33
0.00 0.00 0.00 0.00 0.00 0.00 0.00 0.00 0.00 0.00 0.00 0.00 0.00 0.00 0.02 0.03 0.02 0.02 0.03 0.03 0.03 0.04 0.05 0.06 0.05 0.06 0.07 0.08 0.09 0.12 0.17 0.22 0.27 0.36 0.46 0.52 0.54 0.54 0.50 0.46 0.40 0.37 0.31 0.27
0.00 0.00 0.00 0.00 0.00 0.00 0.00 0.00 0.00 0.00 0.00 0.00 0.00 0.01 0.03 0.03 0.02 0.02 0.02 0.03 0.04 0.05 0.06 0.06 0.08 0.11 0.13 0.13 0.15 0.17 0.23 0.30 0.34 0.40 0.45 0.46 0.45 0.44 0.43 0.43 0.39 0.32 0.27 0.22
0.00 0.00 0.00 0.00 0.00 0.00 0.00 0.00 0.00 0.00 0.00 0.00 0.01 0.02 0.04 0.03 0.02 0.02 0.02 0.03 0.03 0.05 0.06 0.08 0.11 0.13 0.15 0.17 0.19 0.23 0.29 0.35 0.37 0.36 0.39 0.39 0.35 0.35 0.36 0.35 0.30 0.25 0.22 0.18
0.00 0.00 0.00 0.00 0.00 0.00 0.00 0.00 0.00 0.00 0.00 0.00 0.01 0.03 0.06 0.05 0.03 0.03 0.02 0.03 0.03 0.04 0.06 0.08 0.09 0.10 0.12 0.16 0.20 0.23 0.27 0.33 0.32 0.29 0.27 0.27 0.28 0.28 0.26 0.23 0.19 0.17 0.13 0.09
0.00 0.00 0.00 0.00 0.00 0.00 0.00 0.00 0.00 0.00 0.00 0.00 0.01 0.03 0.05 0.05 0.04 0.04 0.03 0.02 0.03 0.03 0.04 0.05 0.07 0.10 0.11 0.12 0.14 0.16 0.18 0.22 0.24 0.23 0.21 0.20 0.20 0.18 0.16 0.14 0.12 0.10 0.09 0.06
0.01 0.00 0.00 0.00 0.00 0.00 0.00 0.00 0.00 0.00 0.00 0.00 0.01 0.03 0.07 0.09 0.06 0.04 0.03 0.03 0.03 0.03 0.03 0.04 0.05 0.05 0.06 0.07 0.08 0.09 0.11 0.13 0.13 0.14 0.14 0.14 0.13 0.13 0.12 0.11 0.08 0.07 0.05 0.04
0.01 0.01 0.00 0.01 0.00 0.00 0.00 0.00 0.00 0.00 0.00 0.00 0.01 0.04 0.07 0.10 0.07 0.05 0.05 0.05 0.06 0.07 0.07 0.07 0.07 0.07 0.05 0.05 0.06 0.07 0.09 0.10 0.10 0.09 0.08 0.09 0.08 0.07 0.06 0.06 0.05 0.04 0.03 0.02
0.01 0.01 0.01 0.01 0.01 0.01 0.00 0.00 0.00 0.00 0.00 0.00 0.01 0.05 0.08 0.06 0.06 0.06 0.06 0.07 0.09 0.11 0.12 0.11 0.11 0.09 0.07 0.06 0.06 0.06 0.06 0.07 0.08 0.08 0.07 0.06 0.06 0.05 0.04 0.04 0.04 0.04 0.03 0.03
0.00 0.01 0.01 0.01 0.01 0.01 0.00 0.00 0.00 0.00 0.00 0.01 0.04 0.05 0.09 0.08 0.06 0.06 0.07 0.07 0.08 0.10 0.11 0.12 0.12 0.11 0.10 0.08 0.07 0.06 0.06 0.05 0.05 0.06 0.05 0.05 0.04 0.04 0.03 0.03 0.02 0.02 0.02 0.02
0.01 0.01 0.01 0.01 0.01 0.01 0.01 0.00 0.00 0.00 0.01 0.03 0.05 0.06 0.09 0.10 0.08 0.07 0.07 0.07 0.07 0.08 0.09 0.09 0.10 0.10 0.11 0.10 0.09 0.09 0.08 0.07 0.05 0.05 0.05 0.05 0.05 0.05 0.04 0.03 0.03 0.03 0.03 0.02
0.01 0.01 0.01 0.01 0.01 0.01 0.01 0.01 0.01 0.01 0.03 0.05 0.07 0.08 0.12 0.12 0.12 0.12 0.10 0.09 0.09 0.10 0.10 0.09 0.09 0.08 0.08 0.07 0.08 0.08 0.08 0.08 0.07 0.06 0.06 0.05 0.04 0.03 0.03 0.02 0.01 0.01 0.01 0.00
0.00 0.01 0.00 0.00 0.01 0.01 0.01 0.01 0.03 0.04 0.05 0.07 0.07 0.08 0.14 0.15 0.14 0.14 0.14 0.14 0.12 0.10 0.09 0.09 0.10 0.10 0.09 0.07 0.07 0.07 0.08 0.07 0.05 0.04 0.03 0.02 0.01 0.01 0.01 0.00 0.00 0.00 0.00 0.00
0.00 0.00 0.00 0.00 0.00 0.01 0.01 0.02 0.05 0.07 0.07 0.08 0.07 0.08 0.13 0.14 0.14 0.14 0.15 0.15 0.15 0.13 0.12 0.11 0.09 0.08 0.08 0.07 0.06 0.05 0.04 0.03 0.02 0.01 0.01 0.00 0.00 0.00 0.00 0.00 0.00 0.00 0.01 0.01
0.00 0.00 0.00 0.00 0.00 0.01 0.01 0.02 0.03 0.04 0.04 0.05 0.05 0.05 0.05 0.06 0.09 0.12 0.12 0.12 0.14 0.13 0.10 0.08 0.07 0.05 0.05 0.04 0.03 0.02 0.01 0.00 0.00 0.00 0.00 0.00 0.00 0.00 0.00 0.00 0.00 0.00 0.00 0.01
0.00 0.00 0.00 0.00 0.00 0.00 0.01 0.01 0.02 0.02 0.02 0.03 0.04 0.02 0.02 0.02 0.02 0.03 0.04 0.03 0.04 0.05 0.05 0.06 0.06 0.04 0.03 0.02 0.02 0.01 0.01 0.01 0.00 0.00 0.00 0.00 0.00 0.00 0.00 0.00 0.00 0.00 0.00 0.01
0.00 0.00 0.00 0.00 0.00 0.00 0.01 0.01 0.02 0.02 0.01 0.01 0.02 0.03 0.02 0.02 0.01 0.01 0.01 0.02 0.02 0.02 0.03 0.05 0.05 0.04 0.03 0.02 0.01 0.01 0.01 0.00 0.00 0.00 0.01 0.00 0.00 0.00 0.00 0.00 0.00 0.00 0.00 0.00
0.00 0.00 0.00 0.00 0.00 0.00 0.01 0.01 0.01 0.01 0.00 0.00 0.01 0.01 0.01 0.01 0.00 0.01 0.01 0.01 0.02 0.02 0.02 0.04 0.04 0.04 0.02 0.01 0.00 0.00 0.00 0.00 0.00 0.01 0.00 0.00 0.00 0.00 0.00 0.00 0.00 0.00 0.00 0.00
0.00 0.00 0.00 0.00 0.00 0.00 0.00 0.00 0.00 0.00 0.00 0.00 0.00 0.00 0.00 0.00 0.00 0.01 0.01 0.01 0.01 0.01 0.01 0.01 0.01 0.01 0.01 0.00 0.00 0.00 0.00 0.00 0.00 0.00 0.00 0.00 0.00 0.00 0.00 0.00 0.00 0.00 0.00 0.00
0.00 0.00 0.00 0.00 0.00 0.00 0.00 0.00 0.00 0.00 0.00 0.00 0.00 0.00 0.00 0.00 0.00 0.01 0.01 0.01 0.01 0.00 0.00 0.00 0.00 0.00 0.00 0.00 0.00 0.00 0.00 0.00 0.00 0.00 0.00 0.00 0.00 0.00 0.00 0.00 0.00 0.00 0.00 0.00
0.00 0.00 0.00 0.00 0.00 0.00 0.00 0.00 0.00 0.00 0.00 0.00 0.00 0.00 0.00 0.00 0.00 0.01 0.01 0.01 0.01 0.00 0.00 0.00 0.00 0.00 0.00 0.00 0.00 0.00 0.00 0.00 0.00 0.00 0.00 0.00 0.00 0.00 0.00 0.00 0.00 0.00 0.00 0.00
0.00 0.00 0.00 0.00 0.00 0.00 0.00 0.00 0.00 0.00 0.00 0.00 0.00 0.00 0.00 0.00 0.00 0.00 0.00 0.00 0.00 0.00 0.00 0.00 0.00 0.00 0.00 0.00 0.00 0.00 0.00 0.00 0.00 0.00 0.00 0.00 0.00 0.00 0.00 0.00 0.00 0.00 0.00 0.00
MSLP
1012.94 1013.62 1014.06 1014.24 1014.18 1013.95 1013.61 1013.26 1012.94 1012.68 1012.47 1012.27 1012.04 1011.76 1011.41 1011.00 1010.57 1010.18 1009.88 1009.72 1009.70 1009.82 1010.04 1010.30 1010.55 1010.74 1010.87 1010.94 1010.99 1011.08 1011.28 1011.61 1012.11 1012.76 1013.52 1014.32 1015.10 1015.79 1016.34 1016.74 1016.99 1017.12 1017.19 1017.23
1012.97 1013.56 1013.92 1014.05 1013.98 1013.78 1013.53 1013.29 1013.12 1012.99 1012.90 1012.79 1012.62 1012.35 1011.98 1011.52 1011.04 1010.58 1010.23 1010.02 1009.97 1010.06 1010.25 1010.47 1010.67 1010.80 1010.85 1010.83 1010.79 1010.80 1010.92 1011.22 1011.70 1012.37 1013.18 1014.06 1014.93 1015.72 1016.37 1016.86 1017.18 1017.37 1017.47 1017.54
1012.79 1013.28 1013.57 1013.65 1013.61 1013.49 1013.37 1013.30 1013.30 1013.35 1013.41 1013.41 1013.30 1013.05 1012.67 1012.17 1011.63 1011.13 1010.72 1010.47 1010.40 1010.46 1010.63 1010.83 1010.99 1011.08 1011.06 1010.97 1010.86 1010.79 1010.86 1011.12 1011.58 1012.26 1013.10 1014.04 1014.98 1015.85 1016.59 1017.16 1017.56 1017.81 1017.96 1018.05
1012.46 1012.82 1013.02 1013.09 1013.09 1013.08 1013.12 1013.25 1013.46 1013.70 1013.93 1014.05 1014.03 1013.82 1013.44 1012.92 1012.35 1011.80 1011.37 1011.09 1011.00 1011.05 1011.21 1011.39 1011.53 1011.59 1011.53 1011.40 1011.24 1011.13 1011.15 1011.37 1011.81 1012.48 1013.33 1014.29 1015.28 1016.21 1017.01 1017.65 1018.12 1018.43 1018.62 1018.73
1012.05 1012.27 1012.38 1012.43 1012.48 1012.59 1012.81 1013.14 1013.57 1014.02 1014.41 1014.67 1014.74 1014.59 1014.23 1013.72 1013.13 1012.58 1012.13 1011.85 1011.75 1011.80 1011.96 1012.14 1012.28 1012.32 1012.25 1012.10 1011.92 1011.78 1011.78 1011.97 1012.39 1013.03 1013.87 1014.82 1015.82 1016.77 1017.61 1018.29 1018.80 1019.15 1019.37 1019.50
1011.64 1011.71 1011.73 1011.76 1011.86 1012.09 1012.48 1013.01 1013.62 1014.26 1014.81 1015.20 1015.37 1015.29 1014.97 1014.49 1013.94 1013.40 1012.97 1012.70 1012.61 1012.68 1012.84 1013.03 1013.17 1013.22 1013.17 1013.02 1012.84 1012.71 1012.69 1012.86 1013.25 1013.86 1014.66 1015.58 1016.54 1017.48 1018.31 1019.00 1019.53 1019.90 1020.15 1020.29
1011.31 1011.24 1011.17 1011.19 1011.34 1011.67 1012.19 1012.87 1013.65 1014.42 1015.10 1015.60 1015.86 1015.85 1015.60 1015.18 1014.68 1014.20 1013.81 1013.58 1013.52 1013.61 1013.79 1013.99 1014.15 1014.23 1014.19 1014.08 1013.93 1013.81 1013.80 1013.96 1014.32 1014.88 1015.62 1016.48 1017.39 1018.28 1019.08 1019.75 1020.27 1020.64 1020.90 1021.06
1011.11 1010.93 1010.80 1010.81 1011.00 1011.40 1012.01 1012.79 1013.66 1014.53 1015.29 1015.85 1016.18 1016.24 1016.07 1015.73 1015.31 1014.91 1014.60 1014.43 1014.41 1014.53 1014.74 1014.96 1015.15 1015.25 1015.25 1015.18 1015.07 1014.98 1014.99 1015.15 1015.49 1016.01 1016.68 1017.47 1018.29 1019.11 1019.84 1020.47 1020.96 1021.33 1021.59 1021.76
1011.07 1010.81 1010.66 1010.68 1010.90 1011.35 1012.01 1012.83 1013.73 1014.61 1015.38 1015.97 1016.33 1016.45 1016.36 1016.11 1015.79 1015.49 1015.28 1015.19 1015.24 1015.40 1015.63 1015.88 1016.09 1016.22 1016.27 1016.25 1016.19 1016.15 1016.20 1016.37 1016.69 1017.16 1017.77 1018.47 1019.21 1019.93 1020.59 1021.16 1021.61 1021.96 1022.21 1022.40
1011.16 1010.91 1010.78 1010.83 1011.09 1011.56 1012.22 1013.02 1013.88 1014.71 1015.44 1016.00 1016.35 1016.51 1016.48 1016.33 1016.13 1015.95 1015.85 1015.85 1015.97 1016.18 1016.44 1016.71 1016.94 1017.11 1017.20 1017.23 1017.24 1017.26 1017.35 1017.54 1017.86 1018.30 1018.85 1019.46 1020.11 1020.74 1021.32 1021.82 1022.23 1022.56 1022.81 1023.00
1011.37 1011.19 1011.14 1011.25 1011.55 1012.03 1012.65 1013.37 1014.13 1014.86 1015.48 1015.97 1016.29 1016.46 1016.49 1016.44 1016.36 1016.31 1016.32 1016.42 1016.61 1016.87 1017.16 1017.45 1017.71 1017.91 1018.05 1018.14 1018.21 1018.30 1018.44 1018.67 1018.99 1019.41 1019.90 1020.45 1021.01 1021.56 1022.05 1022.49 1022.85 1023.16 1023.40 1023.61
1011.68 1011.62 1011.69 1011.89 1012.23 1012.70 1013.26 1013.88 1014.49 1015.07 1015.56 1015.94 1016.21 1016.37 1016.45 1016.49 1016.53 1016.60 1016.73 1016.93 1017.19 1017.50 1017.83 1018.14 1018.41 1018.65 1018.83 1018.98 1019.13 1019.29 1019.49 1019.76 1020.09 1020.50 1020.95 1021.44 1021.92 1022.39 1022.81 1023.19 1023.51 1023.79 1024.02 1024.23
1012.05 1012.16 1012.36 1012.67 1013.05 1013.50 1013.98 1014.47 1014.93 1015.33 1015.67 1015.93 1016.13 1016.28 1016.41 1016.53 1016.68 1016.88 1017.13 1017.42 1017.76 1018.11 1018.47 1018.80 1019.10 1019.36 1019.59 1019.80 1020.02 1020.25 1020.51 1020.82 1021.18 1021.58 1022.00 1022.43 1022.85 1023.25 1023.61 1023.93 1024.21 1024.46 1024.68 1024.88
1012.49 1012.77 1013.11 1013.51 1013.93 1014.35 1014.74 1015.09 1015.39 1015.62 1015.81 1015.96 1016.10 1016.24 1016.41 1016.61 1016.87 1017.19 1017.54 1017.93 1018.33 1018.73 1019.12 1019.47 1019.80 1020.09 1020.37 1020.64 1020.91 1021.21 1021.53 1021.88 1022.26 1022.65 1023.04 1023.43 1023.79 1024.13 1024.43 1024.69 1024.93 1025.15 1025.34 1025.52
1013.01 1013.43 1013.89 1014.35 1014.78 1015.16 1015.46 1015.68 1015.82 1015.91 1015.97 1016.03 1016.12 1016.26 1016.48 1016.77 1017.13 1017.55 1018.01 1018.48 1018.94 1019.39 1019.80 1020.18 1020.53 1020.85 1021.17 1021.49 1021.83 1022.18 1022.55 1022.93 1023.31 1023.69 1024.05 1024.39 1024.70 1024.98 1025.22 1025.44 1025.63 1025.80 1025.97 1026.12
1013.61 1014.13 1014.65 1015.14 1015.56 1015.88 1016.08 1016.18 1016.20 1016.17 1016.13 1016.13 1016.20 1016.37 1016.64 1017.02 1017.48 1018.00 1018.54 1019.08 1019.60 1020.08 1020.52 1020.92 1021.29 1021.65 1022.01 1022.37 1022.75 1023.14 1023.54 1023.93 1024.31 1024.67 1025.00 1025.28 1025.53 1025.75 1025.94 1026.10 1026.25 1026.38 1026.50 1026.61
1014.29 1014.84 1015.38 1015.85 1016.22 1016.47 1016.58 1016.58 1016.49 1016.38 1016.29 1016.27 1016.35 1016.57 1016.91 1017.37 1017.92 1018.52 1019.14 1019.74 1020.30 1020.82 1021.28 1021.70 1022.09 1022.47 1022.85 1023.24 1023.65 1024.05 1024.46 1024.85 1025.21 1025.53 1025.81 1026.05 1026.24 1026.40 1026.53 1026.65 1026.75 1026.84 1026.92 1026.98
1015.03 1015.57 1016.06 1016.47 1016.77 1016.93 1016.96 1016.88 1016.73 1016.58 1016.48 1016.47 1016.59 1016.87 1017.29 1017.83 1018.46 1019.13 1019.81 1020.45 1021.05 1021.58 1022.06 1022.48 1022.89 1023.28 1023.67 1024.07 1024.48 1024.89 1025.28 1025.64 1025.96 1026.24 1026.46 1026.63 1026.77 1026.87 1026.96 1027.03 1027.09 1027.15 1027.19 1027.21
1015.78 1016.25 1016.67 1016.99 1017.20 1017.27 1017.23 1017.10 1016.94 1016.79 1016.71 1016.75 1016.94 1017.29 1017.78 1018.40 1019.10 1019.82 1020.54 1021.21 1021.82 1022.36 1022.84 1023.26 1023.66 1024.05 1024.44 1024.83 1025.22 1025.60 1025.96 1026.27 1026.54 1026.75 1026.91 1027.03 1027.11 1027.17 1027.22 1027.26 1027.29 1027.32 1027.33 1027.33
1016.48 1016.85 1017.17 1017.40 1017.52 1017.53 1017.44 1017.30 1017.14 1017.03 1017.01 1017.13 1017.40 1017.83 1018.40 1019.08 1019.83 1020.59 1021.32 1022.00 1022.60 1023.13 1023.60 1024.01 1024.39 1024.76 1025.13 1025.49 1025.84 1026.17 1026.47 1026.73 1026.93 1027.08 1027.18 1027.24 1027.28 1027.31 1027.33 1027.35 1027.37 1027.39 1027.39 1027.37
1017.05 1017.32 1017.54 1017.68 1017.73 1017.70 1017.60 1017.48 1017.37 1017.33 1017.40 1017.61 1017.97 1018.48 1019.12 1019.85 1020.62 1021.39 1022.12 1022.79 1023.37 1023.88 1024.32 1024.70 1025.05 1025.39 1025.71 1026.02 1026.32 1026.59 1026.83 1027.01 1027.15 1027.24 1027.28 1027.30 1027.31 1027.32 1027.33 1027.35 1027.38 1027.40 1027.40 1027.38
1017.42 1017.61 1017.75 1017.82 1017.84 1017.80 1017.73 1017.66 1017.63 1017.69 1017.86 1018.17 1018.63 1019.21 1019.90 1020.66 1021.44 1022.21 1022.92 1023.55 1024.10 1024.57 1024.97 1025.31 1025.61 1025.90 1026.17 1026.42 1026.66 1026.86 1027.02 1027.14 1027.22 1027.25 1027.26 1027.25 1027.24 1027.25 1027.27 1027.30 1027.35 1027.39 1027.41 1027.40
1017.57 1017.69 1017.77 1017.82 1017.83 1017.83 1017.82 1017.84 1017.91 1018.09 1018.37 1018.78 1019.32 1019.97 1020.70 1021.47 1022.24 1022.98 1023.66 1024.25 1024.75 1025.17 1025.52 1025.81 1026.06 1026.29 1026.49 1026.69 1026.85 1026.99 1027.09 1027.15 1027.17 1027.17 1027.15 1027.13 1027.12 1027.13 1027.17 1027.24 1027.31 1027.38 1027.43 1027.44
1017.48 1017.57 1017.63 1017.69 1017.73 1017.79 1017.87 1017.99 1018.19 1018.49 1018.89 1019.40 1020.01 1020.70 1021.45 1022.22 1022.97 1023.68 1024.30 1024.84 1025.29 1025.65 1025.94 1026.17 1026.37 1026.54 1026.69 1026.81 1026.92 1026.99 1027.04 1027.05 1027.04 1027.01 1026.99 1026.97 1026.98 1027.01 1027.08 1027.18 1027.28 1027.38 1027.46 1027.49
1017.19 1017.27 1017.35 1017.44 1017.55 1017.69 1017.88 1018.13 1018.45 1018.87 1019.37 1019.97 1020.64 1021.37 1022.12 1022.88 1023.59 1024.25 1024.82 1025.30 1025.69 1025.99 1026.23 1026.41 1026.54 1026.66 1026.75 1026.82 1026.87 1026.89 1026.90 1026.89 1026.86 1026.83 1026.81 1026.81 1026.84 1026.91 1027.01 1027.13 1027.27 1027.39 1027.49 1027.54
1016.78 1016.87 1016.98 1017.13 1017.32 1017.57 1017.87 1018.24 1018.69 1019.21 1019.81 1020.47 1021.18 1021.93 1022.68 1023.40 1024.08 1024.68 1025.20 1025.62 1025.95 1026.20 1026.38 1026.51 1026.60 1026.66 1026.70 1026.72 1026.73 1026.73 1026.71 1026.69 1026.66 1026.64 1026.64 1026.67 1026.73 1026.82 1026.95 1027.10 1027.25 1027.39 1027.50 1027.56
Thickness
5652 5643 5641 5651 5659 5667 5674 5678 5680 5692 5710 5713 5713 5715 5724 5735 5741 5743 5746 5750 5755 5760 5766 5767 5769 5770 5769 5768 5767 5767 5765 5764 5760 5756 5751 5745 5739 5735 5731 5727 5724 5720 5716 5713
5638 5640 5654 5661 5663 5666 5670 5672 5678 5691 5707 5711 5708 5706 5717 5726 5729 5734 5739 5744 5748 5752 5755 5759 5761 5760 5760 5760 5761 5761 5761 5760 5758 5755 5750 5744 5737 5730 5725 5720 5714 5711 5708 5705
5637 5647 5661 5659 5661 5662 5667 5671 5679 5686 5696 5705 5704 5697 5706 5714 5721 5726 5730 5735 5739 5742 5745 5748 5750 5752 5755 5754 5755 5756 5756 5756 5754 5750 5744 5737 5730 5723 5717 5711 5705 5702 5700 5696
5639 5651 5657 5658 5659 5663 5660 5680 5683 5686 5681 5678 5693 5675 5690 5701 5707 5712 5716 5721 5727 5732 5736 5739 5741 5744 5746 5747 5749 5750 5751 5750 5748 5744 5738 5732 5724 5715 5708 5701 5695 5691 5688 5686
5640 5652 5654 5654 5662 5667 5670 5684 5684 5685 5680 5676 5681 5673 5678 5694 5696 5700 5706 5711 5716 5721 5726 5729 5732 5735 5737 5738 5741 5742 5742 5741 5739 5736 5731 5724 5716 5707 5699 5692 5686 5680 5676 5674
5644 5657 5661 5663 5674 5677 5680 5680 5676 5668 5666 5663 5676 5670 5672 5685 5691 5694 5697 5701 5706 5711 5716 5718 5721 5724 5725 5727 5729 5731 5731 5729 5727 5724 5719 5713 5705 5696 5689 5681 5674 5669 5664 5661
5639 5653 5665 5672 5670 5676 5673 5658 5646 5651 5646 5654 5672 5669 5669 5683 5689 5689 5689 5691 5695 5700 5703 5705 5707 5708 5709 5711 5714 5716 5715 5712 5711 5708 5702 5697 5691 5685 5678 5669 5663 5657 5652 5647
5628 5635 5661 5670 5670 5667 5667 5662 5646 5645 5646 5649 5662 5661 5667 5677 5681 5683 5683 5684 5686 5688 5690 5690 5691 5692 5694 5695 5697 5698 5697 5694 5693 5690 5684 5679 5675 5669 5662 5656 5650 5644 5638 5634
5630 5638 5666 5675 5679 5676 5666 5662 5668 5655 5654 5644 5649 5657 5662 5669 5670 5672 5673 5674 5674 5675 5676 5676 5676 5677 5678 5679 5679 5679 5679 5676 5672 5669 5667 5662 5656 5650 5645 5640 5634 5628 5623 5619
5642 5641 5657 5669 5674 5673 5673 5666 5653 5648 5640 5637 5642 5648 5652 5658 5659 5660 5660 5660 5660 5661 5661 5661 5660 5660 5661 5661 5661 5661 5659 5656 5652 5650 5648 5644 5638 5632 5628 5623 5617 5612 5607 5603
5647 5639 5645 5654 5651 5654 5661 5659 5649 5641 5644 5634 5629 5635 5655 5656 5654 5651 5649 5648 5648 5647 5646 5644 5643 5643 5643 5643 5641 5640 5639 5638 5634 5630 5628 5625 5619 5614 5609 5604 5600 5595 5590 5586
5644 5634 5631 5644 5656 5661 5659 5654 5649 5643 5636 5634 5631 5632 5649 5650 5647 5643 5639 5636 5634 5633 5631 5629 5628 5627 5627 5625 5624 5622 5620 5618 5615 5611 5609 5605 5600 5596 5592 5587 5582 5578 5573 5568
5644 5633 5624 5630 5638 5647 5647 5647 5645 5639 5630 5625 5625 5627 5638 5638 5635 5632 5628 5624 5621 5619 5618 5616 5614 5612 5610 5608 5606 5603 5600 5598 5596 5594 5591 5588 5583 5578 5574 5569 5565 5561 5556 5551
5644 5626 5624 5623 5625 5633 5634 5637 5641 5638 5626 5625 5628 5628 5628 5626 5624 5620 5617 5613 5610 5607 5605 5602 5599 5596 5594 5592 5589 5586 5583 5581 5579 5576 5573 5569 5565 5561 5556 5552 5548 5543 5539 5534
5639 5621 5623 5625 5630 5631 5628 5629 5632 5632 5630 5626 5627 5627 5623 5620 5617 5612 5607 5603 5599 5595 5592 5588 5584 5581 5578 5576 5573 5570 5567 5564 5561 5558 5555 5551 5547 5544 5539 5535 5531 5527 5523 5518
5627 5619 5619 5616 5622 5624 5620 5620 5623 5623 5624 5623 5620 5614 5614 5610 5607 5602 5597 5593 5589 5584 5580 5575 5570 5567 5564 5561 5558 5554 5551 5548 5545 5542 5538 5534 5531 5527 5523 5519 5514 5510 5506 5502
5617 5616 5608 5605 5615 5616 5603 5605 5610 5610 5610 5610 5606 5604 5602 5598 5595 5592 5588 5583 5578 5573 5568 5563 5558 5554 5550 5547 5544 5540 5537 5534 5531 5527 5523 5520 5516 5512 5508 5504 5499 5495 5491 5487
5617 5606 5597 5598 5604 5592 5596 5607 5606 5601 5598 5600 5598 5594 5590 5586 5581 5579 5576 5572 5566 5561 5555 5550 5546 5541 5537 5534 5530 5527 5524 5521 5518 5514 5510 5506 5502 5498 5494 5490 5485 5481 5476 5472
5618 5610 5597 5589 5587 5590 5598 5602 5600 5596 5588 5589 5587 5582 5578 5574 5571 5564 5561 5559 5554 5549 5543 5538 5534 5530 5526 5522 5519 5516 5512 5509 5506 5502 5498 5494 5490 5486 5482 5478 5473 5469 5464 5460
5613 5607 5595 5587 5586 5583 5592 5599 5602 5594 5581 5583 5580 5575 5571 5569 5562 5553 5548 5545 5541 5536 5532 5527 5523 5520 5515 5512 5509 5506 5501 5498 5495 5491 5487 5483 5479 5475 5471 5466 5462 5457 5453 5449
5604 5596 5588 5583 5582 5584 5593 5596 5596 5581 5577 5577 5574 5569 5565 5559 5553 5545 5539 5534 5530 5525 5521 5517 5514 5509 5506 5503 5500 5496 5492 5488 5484 5481 5477 5473 5469 5465 5461 5457 5452 5448 5443 5438
5598 5591 5585 5578 5578 5580 5590 5592 5584 5578 5574 5571 5566 5561 5555 5549 5543 5537 5531 5525 5521 5516 5512 5509 5505 5500 5496 5494 5491 5486 5482 5479 5476 5472 5469 5465 5460 5457 5453 5448 5443 5438 5434 5428
5597 5593 5585 5581 5577 5581 5581 5582 5577 5573 5568 5563 5558 5552 5549 5542 5535 5529 5523 5517 5513 5508 5504 5500 5497 5492 5489 5486 5483 5479 5475 5471 5468 5464 5460 5456 5452 5448 5444 5440 5436 5431 5425 5420
5601 5593 5588 5583 5583 5581 5578 5575 5571 5568 5563 5557 5553 5548 5543 5536 5528 5521 5515 5510 5505 5501 5497 5493 5490 5486 5482 5479 5476 5472 5468 5465 5461 5457 5452 5449 5445 5442 5438 5434 5430 5425 5420 5415
5605 5596 5587 5583 5583 5579 5576 5571 5566 5560 5556 5551 5546 5541 5536 5530 5522 5516 5510 5505 5500 5496 5491 5487 5483 5479 5476 5472 5469 5466 5463 5459 5455 5451 5447 5444 5440 5437 5433 5429 5424 5421 5416 5412
5603 5598 5591 5587 5586 5579 5573 5568 5564 5558 5551 5546 5541 5533 5528 5524 5518 5512 5505 5500 5495 5491 5486 5481 5477 5473 5470 5467 5464 5461 5458 5454 5450 5447 5444 5440 5437 5433 5430 5425 5421 5417 5414 5411